EDT,Max TemperatureF,Mean TemperatureF,Min TemperatureF,Max Dew PointF,MeanDew PointF,Min DewpointF,Max Humidity, Mean Humidity, Min Humidity, Max Sea Level PressureIn, Mean Sea Level PressureIn, Min Sea Level PressureIn, Max VisibilityMiles, Mean VisibilityMiles, Min VisibilityMiles, Max Wind SpeedMPH, Mean Wind SpeedMPH, Max Gust SpeedMPH,PrecipitationIn, CloudCover, Events, WindDirDegrees
2013-4-1,82,68,55,63,56,52,94,77,45,30.03,30.00,29.95,10,10,9,18,4,23,0.00,1,,221
2013-4-2,84,68,51,66,50,41,94,67,23,30.12,30.06,30.02,10,6,0,8,3,,0.00,1,Fog,97
2013-4-3,82,70,57,63,57,46,88,77,48,30.12,30.05,29.99,10,10,3,10,3,,0.36,3,,95
2013-4-4,75,70,64,66,63,59,94,84,61,30.03,29.96,29.89,10,9,5,20,6,24,0.02,5,,166
2013-4-5,73,64,55,63,58,48,94,81,57,30.05,29.91,29.81,10,10,6,17,6,20,0.00,7,Rain,292
2013-4-6,75,60,46,54,49,43,93,73,44,30.18,30.10,30.04,10,10,10,13,6,17,0.00,1,,29
2013-4-7,80,66,53,57,53,50,94,71,39,30.19,30.13,30.08,10,10,6,9,4,,0.00,1,,73
2013-4-8,84,70,55,59,54,48,88,65,29,30.16,30.11,30.06,10,9,2,9,1,,0.00,1,,111
2013-4-9,86,72,57,63,56,52,94,68,37,30.19,30.13,30.09,10,9,5,8,2,,0.00,2,,124
2013-4-10,84,70,55,64,57,52,94,70,37,30.15,30.08,29.99,10,9,6,9,2,,0.00,1,,136
2013-4-11,91,81,71,66,66,63,83,71,41,30.00,29.92,29.82,10,10,10,16,5,23,0.00,5,,172
2013-4-12,82,76,69,70,67,64,88,79,58,29.92,29.87,29.81,10,10,10,23,9,30,0.00,5,Thunderstorm,201
2013-4-13,84,75,66,64,57,46,94,65,27,30.02,29.94,29.89,10,10,5,10,4,,0.00,2,,4
2013-4-14,86,74,62,66,58,52,88,71,51,30.01,29.97,29.86,10,10,6,17,3,29,0.45,4,Thunderstorm,113
2013-4-15,86,74,62,64,60,57,88,69,45,30.12,29.99,29.88,10,10,10,12,6,,0.45,2,,54
2013-4-16,89,76,64,66,62,61,88,74,43,30.18,30.13,30.08,10,10,4,10,5,18,0.00,1,,56
2013-4-17,84,74,64,64,62,57,94,75,40,30.18,30.13,30.07,10,7,1,12,4,17,0.00,4,,52
2013-4-18,87,74,62,66,61,57,94,73,38,30.09,30.03,29.96,10,8,0,7,2,,0.00,2,,146
2013-4-19,87,78,68,72,67,64,94,79,55,30.02,29.99,29.92,10,9,0,33,8,46,0.46,5,Rain,195
2013-4-20,73,63,53,70,54,48,94,83,77,30.35,30.10,30.00,10,9,2,22,7,25,1.24,8,Rain,11
2013-4-21,71,63,55,63,56,48,94,81,69,30.19,30.14,30.09,10,9,3,14,6,18,1.24,8,Rain-Thunderstorm,33
2013-4-22,71,66,60,63,60,55,94,86,73,30.13,30.10,30.05,10,6,2,14,7,17,0.05,8,Rain,26
2013-4-23,80,68,57,57,55,54,88,70,39,30.15,30.11,30.07,10,10,10,10,6,,0.00,1,,46
2013-4-24,84,68,53,61,55,50,94,71,35,30.17,30.13,30.09,10,10,5,9,2,,0.00,0,,29
2013-4-25,86,72,59,63,58,55,88,71,37,30.22,30.17,30.13,10,9,5,9,2,,0.00,1,,301
2013-4-26,87,74,62,63,61,57,94,72,40,30.28,30.22,30.18,10,10,7,10,4,17,0.00,0,,38
2013-4-27,84,73,62,63,59,55,88,68,39,30.27,30.20,30.12,10,10,10,13,4,17,0.00,1,,59
2013-4-28,84,72,59,64,59,54,88,70,45,30.17,30.08,29.99,10,10,10,9,3,,0.00,1,,96
2013-4-29,82,73,64,64,61,59,88,76,48,30.04,30.00,29.92,10,10,0,12,3,45,0.85,4,Rain-Thunderstorm,172
2013-4-30,86,75,64,66,63,61,94,83,45,30.04,29.99,29.93,10,10,6,15,2,20,0.02,3,Rain,78